This is the latest recevied weather packets stored in our database for station/object K7AEL. If no packets are shown the sender has not sent any weather packets the latest 10 day(s).
| Time | Temp. | Humidity | Pressure | Rain* | Wind** | Luminosity | Snow |
|---|---|---|---|---|---|---|---|
| 1777477889 | 22.22° C | 23% | 1017.5 hPa | 0 mm | - | 388 W/m² | - |
| 1777477585 | 21.67° C | 23% | 1017.6 hPa | 0 mm | - | 384 W/m² | - |
| 1777477281 | 21.11° C | 24% | 1017.5 hPa | 0 mm | - | 362 W/m² | - |
| 1777476978 | 21.11° C | 24% | 1017.5 hPa | 0 mm | - | 255 W/m² | - |
| 1777476676 | 20° C | 25% | 1017.8 hPa | 0 mm | - | 259 W/m² | - |
| 1777476372 | 19.44° C | 26% | 1017.6 hPa | 0 mm | - | 175 W/m² | - |
| 1777476069 | 18.89° C | 26% | 1017.6 hPa | 0 mm | - | 151 W/m² | - |
| 1777475764 | 18.89° C | 26% | 1017.6 hPa | 0 mm | - | 135 W/m² | - |
| 1777475461 | 18.89° C | 27% | 1017.5 hPa | 0 mm | - | 131 W/m² | - |
| 1777475156 | 18.33° C | 27% | 1017.6 hPa | 0 mm | - | 98 W/m² | - |
| 1777474853 | 18.33° C | 26% | 1017.3 hPa | 0 mm | - | 94 W/m² | - |
| 1777474548 | 18.33° C | 27% | 1017.8 hPa | 0 mm | - | 92 W/m² | - |
| 1777474245 | 17.78° C | 26% | 1017.5 hPa | 0 mm | - | 81 W/m² | - |
| 1777473942 | 17.78° C | 27% | 1017.6 hPa | 0 mm | - | 71 W/m² | - |
| 1777473640 | 17.22° C | 28% | 1017.4 hPa | 0 mm | - | 57 W/m² | - |
| 1777473336 | 17.22° C | 28% | 1017.4 hPa | 0 mm | - | 67 W/m² | - |
| 1777473032 | 17.22° C | 28% | 1017.3 hPa | 0 mm | - | 78 W/m² | - |
| 1777472723 | 16.67° C | 28% | 1017.4 hPa | 0 mm | - | 72 W/m² | - |
| 1777472420 | 16.67° C | 29% | 1017.4 hPa | 0 mm | - | 64 W/m² | - |
| 1777472117 | 16.67° C | 29% | 1017.5 hPa | 0 mm | - | 55 W/m² | - |
| 1777471817 | 16.11° C | 29% | 1017.6 hPa | 0 mm | - | 55 W/m² | - |
| 1777471514 | 16.11° C | 29% | 1017.3 hPa | 0 mm | - | 56 W/m² | - |
| 1777471211 | 16.11° C | 28% | 1017.2 hPa | 0 mm | - | 44 W/m² | - |
| 1777470908 | 16.11° C | 28% | 1017.3 hPa | 0 mm | - | 43 W/m² | - |
| 1777470605 | 16.11° C | 29% | 1017.2 hPa | 0 mm | - | 49 W/m² | - |
* Rain latest hour (hover to see other rain measurements)
** Current wind speed in m/s (hover to see current wind gust speed)